Regional Weather Roundup
Issued by NWS State College, PA

Current Version | Previous Version | Text Only | Print | Product List | Glossary On
Versions: 1 2 3 4 5 6 7 8 9 10 11 12 13 14 15 16 17 18 19 20 21 22 23 24 25 26 27 28 29 30 31 32 33 34 35 36 37 38 39 40 41 42 43 44 45 46 47 48 49 50
000
ASUS41 KCTP 300610
RWRCTP

REGIONAL WEATHER ROUNDUP
NATIONAL WEATHER SERVICE STATE COLLEGE PA
200 AM EDT THU MAR 30 2017

Note: "fair" indicates few or no clouds below 12,000 feet with no
significant weather and/or obstructions to visibility.

* = STATION THAT DOES NOT REPORT PRECIPITATION /E.G. RAIN...SNOW...ETC/
    THUNDER OR FOG.

PAZ002>004-007>009-013>016-020>023-029>032-300700-
WESTERN PENNSYLVANIA

CITY           SKY/WX    TMP DP  RH WIND       PRES   REMARKS
ERIE           CLOUDY    40  32  73 NE7       30.20S
MEADVILLE      CLOUDY    42  28  57 NE8       30.16S
FRANKLIN*      CLOUDY    43  27  52 NE7       30.18R
NEW CASTLE     FAIR      45  30  55 NE6       30.14S
BEAVER COUNTY  NOT AVBL
BUTLER*        PTCLDY    45  30  57 NE10      30.14R
PITTSBURGH INT PTCLDY    46  30  53 NE6       30.11S
PITTSBURGH     CLEAR     46  27  47 E6        30.08S
INDIANA*       CLEAR     45  28  53 E8G18     30.16R
LATROBE        CLEAR     48  28  46 NE3       30.11R
WASHINGTON CO* PTCLDY    45  28  53 NE7       30.10S
$$

PAZ004>006-010>012-017>019-024>028-033>037-041-042-045-046-049>053-300700-
CENTRAL PENNSYLVANIA

CITY           SKY/WX    TMP DP  RH WIND       PRES   REMARKS
BRADFORD       CLOUDY    34  25  69 E6        30.18R
DUBOIS         CLOUDY    39  26  59 E6        30.16R
CLEARFIELD     CLOUDY    40  28  62 E7        30.19R
JOHNSTOWN      CLOUDY    41  27  57 E12       30.11S
ALTOONA        CLOUDY    42  28  57 NE5       30.17R
STATE COLLEGE  CLOUDY    38  26  61 N7        30.20R
WILLIAMSPORT   CLEAR     35  25  66 CALM      30.23F
SELINSGROVE    CLOUDY    37  27  67 N6        30.23F
FT INDIANTOWN  PTCLDY    40  25  56 VRB6      30.19F
CAPITAL CITY   CLEAR     45  24  43 NE7       30.20F
HARRISBURG     MOCLDY    43  26  51 NE5       30.19F
YORK           CLEAR     41  28  60 E5        30.20S
$$

PAZ038>040-043-044-047-048-054-055-060>062-067>071-300700-
EASTERN PENNSYLVANIA

CITY           SKY/WX    TMP DP  RH WIND       PRES   REMARKS
SCRANTON       CLEAR     32  24  72 SE3       30.20F
MOUNT POCONO   CLEAR     30  22  72 NE8       30.16F
ALLENTOWN      CLEAR     37  22  54 N6        30.23S
QUAKERTOWN*    CLEAR     37  25  60 NE5       30.22F
READING        CLOUDY    40  26  57 NE7       30.22S
LANCASTER      CLEAR     39  28  64 NE10      30.19F
COATESVILLE    CLEAR     41  25  52 NE8       30.21R
POTTSTOWN      CLEAR     38  23  55 CALM      30.24S
BLUE BELL      CLEAR     37  27  65 CALM      30.21S
DOYLESTOWN     CLEAR     37  24  59 N5        30.21F
WILLOW GROVE   NOT AVBL
NORTH PHILA    CLEAR     42  25  50 N10       30.23F
PHILADELPHIA   PTCLDY    43  25  49 N14       30.21F
$$



USA.gov is the U.S. government's official web portal to all federal, state and local government web resources and services.